Ellsworth Air Force Base, SD

11:26 AM MDT on August 24, 2016 (GMT -0600)
Ellsworth Air Force Base

Weather History for KRCA - July, 2013

Change the Weather History Date:

Saturday, July 20, 2013

  Actual Average Record
Temperature  
Mean Temperature 74 °F -  
Max Temperature 84 °F 85 °F 102 °F (2016)
Min Temperature 64 °F 60 °F 55 °F (2000)
Cooling Degree Days 9    
Growing Degree Days 24 (Base 50)    
Moisture  
Dew Point 62 °F    
Average Humidity 72    
Maximum Humidity 100    
Minimum Humidity 42    
Precipitation  
Precipitation 0.10 in - - ()
Sea Level Pressure  
Sea Level Pressure 29.92 in    
Wind  
Wind Speed 9 mph (East)    
Max Wind Speed 18 mph    
Max Gust Speed 33 mph    
Visibility 10 miles    
Events Rain , Thunderstorm    
Averages and records for this station are not official NWS values.
T = Trace of Precipitation, MM = Missing Value Source: NWS Daily Summary

Daily Weather History Graph

Daily Weather History Graph

Search for Another Location

Airport or City:

Trip Planner

Search our weather history database for the weather conditions in past years. The results will help you decide how hot, cold, wet, or windy it might be!

Date:

Astronomy

Jul. 20, 2013 Rise Set
Actual Time 5:27 AM MDT 8:29 PM MDT
Civil Twilight 4:53 AM MDT 9:03 PM MDT
Nautical Twilight 4:09 AM MDT 9:47 PM MDT
Astronomical Twilight 3:16 AM MDT 10:39 PM MDT
Moon 6:34 PM MDT (7/20) 3:10 AM MDT (7/20)
Length of Visible Light 16h 10m
Length of Day
15h 01m
Waxing Gibbous, 94% of the Moon is Illuminated
Jul 20
Waxing Gibbous
Jul 22
Full
Jul 29
Last Quarter
Aug 6
New
Aug 14
First Quarter

Hourly Weather History & Observations

Time (MDT) Temp. Heat Index Dew Point Humidity Pressure Visibility Wind Dir Wind Speed Gust Speed Precip Events Conditions
12:00 AM 71.6 °F - 62.6 °F 73% 29.99 in 10.0 mi East 13.8 mph 24.2 mph N/A   Overcast
12:58 AM 67.8 °F - 62.8 °F 84% 29.91 in 10.0 mi NW 9.2 mph - N/A   Mostly Cloudy
1:15 AM 68.0 °F - 62.6 °F 83% 29.98 in 10.0 mi NNW 10.4 mph - N/A Rain Light Rain
1:58 AM 67.8 °F - 62.6 °F 83% 29.94 in 10.0 mi Variable 4.6 mph - 0.00 in Rain Light Rain
2:30 AM 68.0 °F - 62.6 °F 83% 30.01 in 10.0 mi North 11.5 mph - N/A   Overcast
2:58 AM 67.6 °F - 63.3 °F 86% 29.94 in 10.0 mi NNE 6.9 mph - 0.00 in   Overcast
3:01 AM 68.0 °F - 62.6 °F 83% 30.01 in 10.0 mi Variable 4.6 mph - N/A   Light Drizzle
3:23 AM 66.2 °F - 64.4 °F 94% 29.99 in 10.0 mi SSE 5.8 mph - N/A   Overcast
3:58 AM 65.7 °F - 63.1 °F 92% 29.90 in 10.0 mi NW 8.1 mph - 0.00 in   Overcast
3:59 AM 66.2 °F - 62.6 °F 88% 29.97 in 10.0 mi WNW 6.9 mph - N/A Rain Light Rain
4:08 AM 66.2 °F - 62.6 °F 88% 29.97 in 10.0 mi NNW 6.9 mph - N/A Thunderstorm Overcast
4:26 AM 66.2 °F - 62.6 °F 88% 29.96 in 10.0 mi West 3.5 mph - N/A Thunderstorm Thunderstorm
4:41 AM 66.2 °F - 62.6 °F 88% 29.95 in 10.0 mi South 5.8 mph - N/A Thunderstorm Overcast
4:42 AM 66.2 °F - 62.6 °F 88% 29.95 in 10.0 mi South 5.8 mph - N/A Thunderstorm Thunderstorm
4:52 AM 66.2 °F - 62.6 °F 88% 29.96 in 9.0 mi SSW 8.1 mph - N/A Thunderstorm Thunderstorm
4:53 AM 66.2 °F - 62.6 °F 88% 29.96 in 9.0 mi South 8.1 mph - N/A Rain , Thunderstorm Light Thunderstorms and Rain
4:58 AM 66.0 °F - 63.5 °F 92% 29.89 in 9.0 mi South 5.8 mph - 0.03 in Rain , Thunderstorm Heavy Thunderstorms and Rain
5:09 AM 64.4 °F - 64.4 °F 100% 29.95 in 10.0 mi SSW 6.9 mph - N/A   Mostly Cloudy
5:58 AM 66.4 °F - 61.7 °F 85% 29.89 in 10.0 mi SSW 12.7 mph - 0.03 in   Clear
6:58 AM 67.3 °F - 61.2 °F 81% 29.88 in 10.0 mi South 6.9 mph - N/A   Mostly Cloudy
7:58 AM 70.2 °F - 60.3 °F 71% 29.89 in 10.0 mi NNE 6.9 mph - N/A   Overcast
8:58 AM 70.7 °F - 62.4 °F 75% 29.90 in 10.0 mi ENE 9.2 mph - N/A   Partly Cloudy
9:58 AM 75.0 °F - 61.7 °F 63% 29.90 in 10.0 mi NNE 8.1 mph - N/A   Clear
10:58 AM 78.4 °F - 62.1 °F 57% 29.88 in 10.0 mi Variable 5.8 mph - N/A   Clear
11:58 AM 80.8 °F 81.6 °F 61.3 °F 51% 29.88 in 10.0 mi West 4.6 mph - N/A   Clear
12:58 PM 82.6 °F 83.6 °F 62.6 °F 51% 29.88 in 10.0 mi North 9.2 mph - N/A   Clear
1:58 PM 80.2 °F 81.3 °F 61.5 °F 53% 29.86 in 10.0 mi NE 8.1 mph - N/A Thunderstorm Partly Cloudy
2:49 PM 84.2 °F 84.4 °F 60.8 °F 45% 29.95 in 10.0 mi NE 4.6 mph - N/A   Light Drizzle
2:51 PM 84.2 °F 84.4 °F 60.8 °F 45% 29.95 in 10.0 mi NE 2.3 mph - N/A   Mostly Cloudy
2:58 PM 84.2 °F 84.0 °F 59.7 °F 43% 29.87 in 10.0 mi Variable 6.9 mph - 0.00 in   Mostly Cloudy
3:01 PM 82.4 °F 82.9 °F 60.8 °F 48% 29.94 in 10.0 mi ESE 4.6 mph - N/A Rain Light Rain
3:14 PM 82.4 °F 82.9 °F 60.8 °F 48% 29.94 in 10.0 mi Variable 2.3 mph - N/A Thunderstorm Mostly Cloudy
3:31 PM 80.6 °F 81.1 °F 59.0 °F 48% 29.93 in 10.0 mi SE 5.8 mph - N/A Thunderstorm Light Drizzle
3:33 PM 80.6 °F 81.1 °F 59.0 °F 48% 29.92 in 10.0 mi ESE 5.8 mph - N/A Rain , Thunderstorm Light Thunderstorms and Rain
3:35 PM 80.6 °F 81.1 °F 59.0 °F 48% 29.92 in 10.0 mi East 8.1 mph - N/A Thunderstorm Thunderstorm
3:58 PM 80.4 °F 81.2 °F 60.1 °F 50% 29.88 in 10.0 mi SW 11.5 mph - 0.00 in Thunderstorm Thunderstorm
4:08 PM 77.0 °F - 64.4 °F 65% 29.94 in 10.0 mi SSW 15.0 mph 33.4 mph N/A Rain , Thunderstorm Light Thunderstorms and Rain
4:25 PM 73.4 °F - 64.4 °F 73% 29.94 in 10.0 mi SSE 16.1 mph 19.6 mph N/A Rain , Thunderstorm Light Rain
4:33 PM 75.2 °F - 64.4 °F 69% 29.93 in 10.0 mi SE 16.1 mph - N/A   Scattered Clouds
4:35 PM 75.2 °F - 64.4 °F 69% 29.93 in 10.0 mi SE 16.1 mph - N/A   Mostly Cloudy
4:58 PM 77.5 °F - 63.5 °F 62% 29.86 in 10.0 mi SE 10.4 mph - 0.01 in   Scattered Clouds
5:58 PM 82.9 °F 82.6 °F 57.9 °F 42% 29.81 in 10.0 mi South 6.9 mph - N/A   Clear
6:58 PM 82.2 °F 83.2 °F 62.2 °F 51% 29.82 in 10.0 mi East 10.4 mph - N/A   Clear
7:58 PM 72.1 °F - 61.5 °F 69% 29.87 in 10.0 mi East 18.4 mph - N/A   Clear
8:58 PM 69.8 °F - 61.7 °F 75% 29.86 in 10.0 mi East 8.1 mph - N/A   Partly Cloudy
9:58 PM 68.4 °F - 61.9 °F 80% 29.89 in 10.0 mi South 5.8 mph - N/A   Mostly Cloudy
10:58 PM 68.9 °F - 61.0 °F 76% 29.89 in 10.0 mi WNW 4.6 mph - N/A   Scattered Clouds
10:59 PM 68.0 °F - 60.8 °F 78% 29.96 in 10.0 mi WNW 4.6 mph - N/A Thunderstorm Thunderstorm
11:06 PM 68.0 °F - 62.6 °F 83% 29.95 in 9.0 mi NE 6.9 mph - N/A Rain , Thunderstorm Thunderstorms and Rain
11:28 PM 68.0 °F - 64.4 °F 88% 29.95 in 10.0 mi NE 9.2 mph - N/A Rain , Thunderstorm Light Rain
11:32 PM 68.0 °F - 64.4 °F 88% 29.96 in 10.0 mi NNE 8.1 mph - N/A Thunderstorm Mostly Cloudy
11:50 PM 68.0 °F - 64.4 °F 88% 29.97 in 10.0 mi NE 8.1 mph - N/A Thunderstorm Thunderstorm
11:58 PM 67.3 °F - 64.4 °F 90% 29.88 in 9.0 mi NE 8.1 mph - 0.03 in Thunderstorm Thunderstorm
11:59 PM 68.0 °F - 64.4 °F 88% 29.95 in 9.0 mi NE 8.1 mph - N/A Thunderstorm Thunderstorm